Waarnemingen

Advertentie
Mijn weer
Leucate/Semaphore, Frankrijk (7666): temperatuur & dauwpunt: 18.02.2017 16:00:00 - 24.02.2017 16:00:00 (CET)Leucate/Semaphore, Frankrijk (7666): windsnelheid & windstoten: 18.02.2017 16:00:00 - 24.02.2017 16:00:00 (CET)Leucate/Semaphore, Frankrijk (7666): windrichting: 18.02.2017 16:00:00 - 24.02.2017 16:00:00 (CET)Leucate/Semaphore, Frankrijk (7666): luchtdruk: 18.02.2017 16:00:00 - 24.02.2017 16:00:00 (CET)Leucate/Semaphore, Frankrijk (7666): zicht: 18.02.2017 16:00:00 - 24.02.2017 16:00:00 (CET)Leucate/Semaphore, Frankrijk (7666): neerslag: 18.02.2017 16:00:00 - 24.02.2017 16:00:00 (CET)
Datum & Tijd tt [°C] td [°C] ff [km/u] ff [kn] fx [km/u] fx [kn] dd ppp [hPa] vv [km] rr [mm]
24.02.2017 16:00:00 13,0 1,3 41 22 80 43 NW 1014,1 25 0,0
24.02.2017 15:00:00 12,6 0,7 37 20 84 45 NW 1013,9 - 0,0
24.02.2017 14:00:00 13,4 2,6 32 18 77 42 NW 1014,4 - 0,0
24.02.2017 13:00:00 12,6 3,8 34 18 69 37 NW 1014,5 25 0,0
24.02.2017 12:00:00 12,2 5,1 30 16 67 36 NW 1015,4 - 0,0
24.02.2017 11:00:00 11,5 5,1 27 14 51 28 NW 1014,9 - 0,0
24.02.2017 10:00:00 11,8 6,3 20 11 64 35 NW 1014,6 25 0,0
24.02.2017 09:00:00 10,9 7,2 32 17 59 32 NW 1014,2 - 0,0
24.02.2017 08:00:00 10,9 7,4 20 11 58 31 NW 1013,5 - 0,0
24.02.2017 07:00:00 11,0 6,7 23 13 54 29 NW 1013,9 - 0,0
24.02.2017 06:00:00 11,6 6,7 33 18 61 33 NW 1012,7 - 0,0
24.02.2017 05:00:00 11,6 6,9 16 9 54 29 NW 1013,2 - 0,0
24.02.2017 04:00:00 12,2 6,9 14 7 56 30 NW 1013,7 12 0,0
24.02.2017 03:00:00 12,5 7,2 29 16 70 38 NW 1013,3 - 0,0
24.02.2017 02:00:00 12,5 7,4 36 19 66 36 NW 1012,9 - 0,0
24.02.2017 01:00:00 12,8 8,1 31 17 64 34 NW 1014,3 - 0,0
24.02.2017 00:00:00 13,0 8,1 27 15 57 31 NW 1013,9 - 0,0
23.02.2017 23:00:00 12,9 8,0 22 12 54 29 NW 1014,3 - 0,0
23.02.2017 22:00:00 11,5 9,4 12 7 37 20 W 1013,8 - 0,0
23.02.2017 21:00:00 11,6 10,3 4 2 11 6 ONO 1013,4 - 0,0
23.02.2017 20:00:00 11,1 10,0 9 5 12 6 WZW 1012,8 - 0,0
23.02.2017 19:00:00 11,1 9,8 8 5 11 6 WNW 1012,6 6 0,0
23.02.2017 18:00:00 11,4 10,0 8 4 10 6 W 1012,5 - 0,0
23.02.2017 17:00:00 11,9 10,3 6 3 10 6 Z 1013,0 - 0,0
23.02.2017 16:00:00 12,0 10,2 9 5 20 11 OZO 1013,4 6 0,0
23.02.2017 15:00:00 11,9 10,1 10 6 23 12 NNO 1013,7 - 0,0
23.02.2017 14:00:00 12,0 10,6 10 6 26 14 N 1014,7 - 0,0
23.02.2017 13:00:00 11,7 10,4 11 6 26 14 N 1015,2 6 0,0
23.02.2017 12:00:00 11,4 10,1 12 6 20 11 NNW 1016,2 - 0,0
23.02.2017 11:00:00 11,2 8,9 13 7 22 12 N 1016,0 - 0,0
23.02.2017 10:00:00 11,1 7,6 10 5 23 12 N 1015,9 25 0,0
23.02.2017 09:00:00 11,1 7,2 12 7 20 11 N 1015,9 - 0,0
23.02.2017 08:00:00 10,2 6,5 15 8 27 14 NNW 1015,7 - 0,0
23.02.2017 07:00:00 9,0 5,7 14 8 25 13 NNW 1015,4 - 0,0
23.02.2017 06:00:00 9,1 6,9 16 9 22 12 NNW 1015,4 - 0,0
23.02.2017 05:00:00 8,6 5,9 6 4 19 10 NNW 1015,7 - 0,0
23.02.2017 04:00:00 10,3 7,2 15 8 20 11 NNW 1016,0 - 0,0
23.02.2017 03:00:00 10,8 6,0 7 4 21 11 N 1016,6 - 0,0
23.02.2017 02:00:00 11,0 6,7 16 8 22 12 NNW 1016,8 - 0,0
23.02.2017 01:00:00 11,5 8,2 15 8 20 11 N 1017,4 - 0,0
23.02.2017 00:00:00 11,6 6,9 12 7 16 9 N 1017,9 - 0,0
22.02.2017 23:00:00 12,3 8,0 10 6 13 7 NNW 1018,3 - 0,0
22.02.2017 22:00:00 12,6 9,6 4 2 12 7 ZW 1018,6 - 0,0
22.02.2017 21:00:00 13,4 9,4 15 8 18 10 ZZW 1018,6 - 0,0
22.02.2017 20:00:00 13,7 9,5 12 6 18 10 ZZW 1018,6 - 0,0
22.02.2017 19:00:00 13,8 9,2 16 8 21 11 ZW 1018,5 25 0,0
22.02.2017 18:00:00 14,4 9,6 17 9 24 13 ZW 1018,3 - 0,0
22.02.2017 17:00:00 15,3 10,1 17 9 27 14 ZZW 1018,5 - 0,0
22.02.2017 16:00:00 14,3 9,5 18 10 24 13 Z 1019,2 20 0,0
22.02.2017 15:00:00 15,0 9,1 14 8 23 12 Z 1019,6 - 0,0
22.02.2017 14:00:00 14,4 9,0 18 10 25 14 Z 1020,3 - 0,0
22.02.2017 13:00:00 14,4 7,7 19 10 27 15 Z 1020,9 - 0,0
22.02.2017 12:00:00 14,0 9,4 18 10 25 14 Z 1021,6 - 0,0
22.02.2017 11:00:00 16,4 8,6 15 8 31 17 NW 1021,9 - 0,0
22.02.2017 10:00:00 15,0 8,2 16 8 38 20 NW 1022,0 - 0,0
22.02.2017 09:00:00 13,4 7,4 16 8 25 14 NW 1022,1 - 0,0
22.02.2017 08:00:00 12,0 7,3 13 7 27 14 NW 1021,8 - 0,0
22.02.2017 07:00:00 11,0 6,7 14 8 25 14 NW 1021,6 30 0,0
22.02.2017 06:00:00 11,7 7,2 8 5 27 14 NNW 1021,9 - 0,0
22.02.2017 05:00:00 11,5 7,0 6 3 31 17 WNW 1022,0 - 0,0
22.02.2017 04:00:00 12,0 7,3 8 4 51 27 NW 1022,0 15 0,0
22.02.2017 03:00:00 12,5 7,4 30 16 56 31 NW 1021,9 - 0,0
22.02.2017 02:00:00 12,4 7,5 21 11 44 24 WNW 1022,4 - 0,0
22.02.2017 01:00:00 12,5 7,6 15 8 58 32 WNW 1022,6 - 0,0
22.02.2017 00:00:00 12,7 7,6 32 18 64 34 NW 1021,7 - 0,0
21.02.2017 23:00:00 13,1 7,5 31 17 58 31 NW 1021,5 - 0,0
21.02.2017 22:00:00 12,9 7,6 29 16 50 27 NNW 1022,0 - 0,0
21.02.2017 21:00:00 13,0 7,7 20 11 40 22 NW 1022,3 - 0,0
21.02.2017 20:00:00 13,4 7,8 21 12 61 33 NW 1022,0 - 0,0
21.02.2017 19:00:00 14,0 8,0 26 14 49 26 NW 1021,5 30 0,0
21.02.2017 18:00:00 15,5 8,0 29 15 54 29 NW 1021,0 - 0,0
21.02.2017 17:00:00 16,8 8,2 29 15 50 27 NNW 1021,1 - 0,0
21.02.2017 16:00:00 17,9 7,9 29 15 54 29 NW 1021,1 30 0,0
21.02.2017 15:00:00 18,5 8,2 26 14 50 27 NW 1021,3 - 0,0
21.02.2017 14:00:00 17,4 8,3 29 15 59 32 NW 1022,3 - 0,0
21.02.2017 13:00:00 16,4 7,9 27 15 55 30 NW 1023,1 - 0,0
21.02.2017 12:00:00 15,4 7,7 30 16 61 33 NW 1024,3 - 0,0
21.02.2017 11:00:00 14,7 7,0 34 18 68 37 NW 1024,2 - 0,0
21.02.2017 10:00:00 13,3 6,4 35 19 62 33 NW 1023,6 30 0,0
21.02.2017 09:00:00 11,9 6,2 30 16 57 31 NW 1023,7 - 0,0
21.02.2017 08:00:00 10,7 5,7 20 11 39 21 NW 1024,0 - 0,0
21.02.2017 07:00:00 11,0 5,7 21 11 42 23 NW 1024,0 20 0,0
21.02.2017 06:00:00 10,5 5,7 16 9 44 24 WNW 1024,2 - 0,0
21.02.2017 05:00:00 10,3 5,3 23 12 51 28 NW 1024,5 - 0,0
21.02.2017 04:00:00 10,0 5,0 30 16 63 34 NW 1024,4 20 0,0
21.02.2017 03:00:00 9,8 4,8 30 16 55 30 NW 1024,4 - 0,0
21.02.2017 02:00:00 10,0 5,0 30 16 59 32 NW 1024,8 - 0,0
21.02.2017 01:00:00 10,4 4,7 24 13 54 29 NW 1024,7 20 0,0
21.02.2017 00:00:00 10,0 4,6 27 14 64 35 NW 1025,0 - 0,0
20.02.2017 23:00:00 10,3 4,6 34 18 67 36 NW 1024,8 - 0,0
20.02.2017 22:00:00 10,6 4,7 34 18 66 36 NW 1025,0 - 0,0
20.02.2017 21:00:00 10,5 4,6 33 18 65 35 NW 1024,8 - 0,0
20.02.2017 20:00:00 10,6 4,7 33 18 70 38 NW 1024,5 - 0,0
20.02.2017 19:00:00 11,0 5,1 32 17 61 33 NW 1023,9 25 0,0
20.02.2017 18:00:00 12,0 5,2 33 18 68 37 NW 1023,7 - 0,0
20.02.2017 17:00:00 13,5 5,9 32 17 64 35 NW 1023,8 - 0,0
20.02.2017 16:00:00 14,4 5,7 38 21 69 37 NW 1023,4 25 0,0
20.02.2017 15:00:00 15,4 5,3 26 14 64 35 NW 1024,0 - 0,0
20.02.2017 14:00:00 15,0 4,9 33 18 71 38 NW 1024,3 - 0,0
20.02.2017 13:00:00 14,5 4,5 33 18 64 35 NW 1024,9 - 0,0
20.02.2017 12:00:00 14,0 4,8 27 15 67 36 NW 1025,8 - 0,0
20.02.2017 11:00:00 12,7 4,9 32 18 72 39 NW 1025,9 - 0,0
20.02.2017 10:00:00 11,6 5,0 34 18 72 39 NW 1025,4 25 0,0
20.02.2017 09:00:00 10,8 5,1 34 18 66 36 NW 1025,3 - 0,0
20.02.2017 08:00:00 9,6 4,8 27 15 59 32 NW 1025,6 - 0,0
20.02.2017 07:00:00 9,4 5,2 29 15 60 32 NW 1025,3 20 0,0
20.02.2017 06:00:00 9,9 5,5 28 15 75 41 NW 1024,9 - 0,0
20.02.2017 05:00:00 10,2 6,2 29 15 53 29 NW 1024,7 - 0,0
20.02.2017 04:00:00 10,3 6,3 22 12 47 25 NW 1024,8 - 0,0
20.02.2017 03:00:00 10,3 6,4 19 10 47 26 NW 1025,3 - 0,0
20.02.2017 02:00:00 10,6 6,2 26 14 53 28 NW 1025,5 - 0,0
20.02.2017 01:00:00 11,0 6,7 18 10 36 20 NW 1025,7 20 0,0
20.02.2017 00:00:00 11,1 6,8 21 11 37 20 NW 1025,7 - 0,0
19.02.2017 23:00:00 11,5 6,8 21 11 36 19 NW 1025,7 - 0,0
19.02.2017 22:00:00 11,7 6,6 19 11 43 23 WNW 1025,5 - 0,0
19.02.2017 21:00:00 12,2 6,7 24 13 44 24 WNW 1025,5 - 0,0
19.02.2017 20:00:00 12,1 6,4 21 11 42 23 WNW 1025,1 - 0,0
19.02.2017 19:00:00 12,5 5,9 23 12 42 23 WNW 1024,8 18 0,0
19.02.2017 18:00:00 14,1 5,4 18 10 32 18 WNW 1024,5 - 0,0
19.02.2017 17:00:00 12,7 10,1 11 6 14 8 Z 1024,8 - 0,0
19.02.2017 16:00:00 13,3 10,1 9 5 15 8 Z 1024,8 25 0,0
19.02.2017 15:00:00 13,2 9,8 11 6 14 7 ZZO 1025,2 - 0,0
19.02.2017 14:00:00 12,8 9,1 6 3 10 5 ZO 1026,0 - 0,0
19.02.2017 13:00:00 13,0 9,3 6 4 12 7 OZO 1026,7 25 0,0
19.02.2017 12:00:00 13,5 9,0 4 2 13 7 ONO 1027,4 - 0,0
19.02.2017 11:00:00 11,9 8,7 8 5 11 6 N 1027,4 - 0,0
19.02.2017 10:00:00 10,9 8,5 6 3 12 6 NNW 1027,2 - 0,0
19.02.2017 09:00:00 10,3 8,6 7 4 15 8 NNW 1026,7 - 0,0
19.02.2017 08:00:00 8,0 6,8 11 6 16 9 NW 1026,3 - 0,0
19.02.2017 07:00:00 8,1 7,0 13 7 16 8 NNW 1025,5 20 0,0
19.02.2017 06:00:00 8,2 7,1 11 6 14 7 NNW 1025,1 - 0,0
19.02.2017 05:00:00 7,6 6,4 9 5 12 7 NW 1024,7 - 0,0
19.02.2017 04:00:00 8,3 6,8 10 5 13 7 NNW 1024,4 - 0,0
19.02.2017 03:00:00 9,2 7,3 11 6 16 9 NNW 1024,5 - 0,0
19.02.2017 02:00:00 8,9 7,0 13 7 16 8 NW 1024,1 - 0,0
19.02.2017 01:00:00 8,7 6,7 13 7 15 8 NW 1024,0 19 0,0
19.02.2017 00:00:00 9,0 7,0 12 7 15 8 NW 1023,7 - 0,0
18.02.2017 23:00:00 8,8 6,8 13 7 16 8 NW 1023,6 - 0,0
18.02.2017 22:00:00 8,7 6,1 13 7 18 10 NW 1023,2 - 0,0
18.02.2017 21:00:00 8,5 5,6 10 5 14 7 WNW 1023,1 - 0,0
18.02.2017 20:00:00 8,7 4,9 10 5 12 6 WNW 1022,7 - 0,0
18.02.2017 19:00:00 9,2 4,8 8 4 9 5 WNW 1022,3 18 0,0
18.02.2017 18:00:00 10,2 5,2 5 3 6 3 NNW 1021,8 - 0,0
18.02.2017 17:00:00 11,7 5,1 2 1 13 7 NNO 1021,5 - 0,0
18.02.2017 16:00:00 12,6 5,5 9 5 16 9 O 1021,4 18 0,0

tt = temperatuur
td = dauwpunt
ff = windsnelheid
fx = windstoten
dd = windrichting
ppp = luchtdruk
vv = zicht
rr = neerslag

Weerstations in de omgeving